Regional Weather Roundup
Issued by NWS

Home | Current Version | Previous Version | Text Only | Print | Product List | Glossary Off
Versions: 1 2 3 4 5 6 7 8 9 10 11 12 13 14 15 16 17 18 19 20 21 22 23 24 25 26 27 28 29 30 31 32 33 34 35 36 37 38 39 40 41 42 43 44 45 46 47 48 49 50

000
ASUS43 KOAX 260110
RWRNE

WEATHER ROUNDUP FOR NEBRASKA
NATIONAL WEATHER SERVICE OMAHA NE
800 PM CDT SAT APR 25 2015

NOTES: SATELLITE DATA IS BEING USED TO AUGMENT CLOUD COVER ABOVE
       12000 FEET.
       "FAIR" INDICATES FEW OR NO CLOUDS BELOW 12,000 FEET WITH NO
       SIGNIFICANT WEATHER AND/OR OBSTRUCTIONS TO VISIBILITY.

  * THESE STATIONS DO NOT REPORT WEATHER SUCH AS RAIN...SNOW OR FOG.

NEZ001>004-019>022-054>056-260200-
NEBRASKA PANHANDLE

CITY           SKY/WX    TMP DP  RH WIND       PRES   REMARKS
SCOTTSBLUFF    CLOUDY    58  39  49 W14G23    29.72S
ALLIANCE       CLOUDY    53  46  77 E15       29.72R
CHADRON        CLOUDY    54  48  80 E8        29.72R
KIMBALL        LGT RAIN  47  44  87 N21       29.76F
SIDNEY         CLOUDY    53  44  71 SE9       29.72F
$$

NEZ057>060-069>072-079>082-260200-
SOUTHWEST NEBRASKA

CITY           SKY/WX    TMP DP  RH WIND       PRES   REMARKS
IMPERIAL       PTCLDY    63  48  58 E18G28    29.71R
LEXINGTON      CLOUDY    53  48  83 E14       29.78R
MCCOOK         MOCLDY    58  50  75 E16       29.74R
OGALLALA       CLOUDY    62  51  67 E15       29.73R
$$

NEZ005>010-023>029-035>040-094-260200-
NORTH CENTRAL NEBRASKA

CITY           SKY/WX    TMP DP  RH WIND       PRES   REMARKS
VALENTINE      CLOUDY    54  46  74 SE15      29.79R
AINSWORTH      CLOUDY    55  46  74 SE9       29.80R
BROKEN BOW     CLOUDY    54  47  77 E13       29.78R
O`NEILL        MOCLDY    56  46  69 E6        29.81R
ORD            CLOUDY    55  45  68 E8        29.79R
THEDFORD       CLOUDY    54  47  79 E13       29.80R
$$

NEZ041-046>049-061>064-073>077-083>087-260200-
SOUTH CENTRAL NEBRASKA

CITY           SKY/WX    TMP DP  RH WIND       PRES   REMARKS
GRAND ISLAND   CLOUDY    50  46  86 NE10      29.81R
AURORA         CLOUDY    49  48  95 NE16      29.81R
HASTINGS       CLOUDY    50  46  86 NE15      29.78R
HEBRON         CLOUDY    51  47  86 NE6       29.79R
HOLDREGE       CLOUDY    50  47  88 E13       29.78R
KEARNEY *      CLOUDY    48  45  87 E12       29.80R
YORK           CLOUDY    50  46  87 NE10      29.81R
$$

NEZ011>018-030>034-042>045-260200-
NORTHEAST NEBRASKA

CITY           SKY/WX    TMP DP  RH WIND       PRES   REMARKS
NORFOLK        MOCLDY    54  45  71 E9        29.83R
ALBION         PTCLDY    52  44  74 E8        29.82R
BLAIR          CLOUDY    50  44  78 NE10G20   29.81R
COLUMBUS *     CLOUDY    52  43  71 E10       29.84R
FREMONT        CLOUDY    53  46  76 E10       29.82R
TEKAMAH        CLOUDY    53  45  74 E13       29.83R
WAYNE          CLOUDY    55  43  63 E14       29.84R
$$

NEZ050>053-065>068-078-088>093-260200-
SOUTHEAST NEBRASKA

CITY           SKY/WX    TMP DP  RH WIND       PRES   REMARKS
LINCOLN        CLOUDY    51  45  79 NE12G20   29.82R
OMAHA EPPLEY   CLOUDY    52  44  74 E12       29.82R
BEATRICE       CLOUDY    50  46  87 NE9G20    29.78R FOG
FALLS CITY     CLOUDY    49  45  86 NE14G21   29.77R
NEBRASKA CITY  CLOUDY    49  46  90 NE13      29.80R
PLATTSMOUTH    CLOUDY    49  45  85 NE10      29.80R
$$

NEZ044-045-051>053-067-260200-
OMAHA AREA

CITY           SKY/WX    TMP DP  RH WIND       PRES   REMARKS
OMAHA EPPLEY   CLOUDY    52  44  74 E12       29.82R
BLAIR          CLOUDY    50  44  78 NE10G20   29.81R
FREMONT        CLOUDY    53  46  76 E10       29.82R
MILLARD        CLOUDY    52  45  76 NE9       29.82R
OFFUTT AFB     CLOUDY    51  45  82 NE10G18   29.81R
PLATTSMOUTH    CLOUDY    49  45  85 NE10      29.80R
WAHOO          CLOUDY    51  45  78 E10       29.81R
$$


USA.gov is the U.S. government's official web portal to all federal, state and local government web resources and services.